[[{"header":{"parameterUnit":"m.s-1","parameterCategory":1,"la1":30.2991,"la2":30.254,"lo1":-89.0895,"lo2":-89.0444,"dy":0.0017,"dx":0.0017,"nx":28,"ny":28,"refTime":"2025-04-21T09:00:00:Z","depth":0,"parameterNumber":2,"parameterNumberName":"U-component_of_WINDS"},"data":[0,0,0,0,0,0,0,0,0,0,0,0,0,0,0,0,0,0,0,0,0,0,0,0,0,0,0,0,0,0,0,0,0,0,0,0,0,0,0,0,0,0,0,0,0,0,0,0,0,0,0,0,0,0,0,0,0,0,-2.7729,-2.773,0,-2.7871,-2.7873,-2.7874,-2.7898,-2.7897,-2.7896,-2.7895,-2.8042,-2.8047,-2.8052,0,0,0,0,0,0,0,0,0,0,0,0,0,-2.748,-2.7484,-2.7729,-2.773,-2.7732,-2.7871,-2.7873,-2.7875,-2.7899,-2.7897,-2.7896,-2.7894,-2.8041,-2.8047,-2.8053,0,0,0,0,0,0,0,0,0,0,0,0,0,-2.7602,-2.7486,-2.7728,-2.7761,-2.7765,-2.7871,-2.7873,-2.7875,-2.7899,-2.7897,-2.7895,-2.7893,-2.8039,-2.8046,-2.8054,-2.8137,0,0,-2.8077,-2.808,0,0,0,0,0,0,0,0,-2.7595,-2.7611,-2.7754,-2.7759,-2.7764,-2.7865,-2.7839,-2.7963,-2.7899,-2.7848,-2.7895,-2.7893,-2.7985,-2.7997,-2.8028,-2.8144,-2.8151,-2.8078,-2.8082,-2.8085,-2.8088,0,0,0,0,0,0,0,-2.7586,-2.7605,-2.7785,-2.7756,-2.7762,-2.7769,-2.7784,-2.7863,-2.7925,-2.7852,-2.7855,-2.7871,-2.7987,-2.802,-2.8031,-2.8153,-2.8077,-2.8084,-2.8089,-2.8092,-2.8346,-2.8348,0,0,0,0,0,0,-2.7572,-2.7598,-2.7781,-2.7789,-2.7673,-2.7775,-2.7792,-2.7834,-2.7924,-2.7936,-2.7872,-2.7872,-2.8008,-2.8022,-2.8037,-2.8141,-2.8085,-2.8093,-2.8097,-2.8344,-2.8347,-2.8349,0,0,0,0,0,0,-2.7566,-2.7588,-2.7775,-2.7694,-2.7719,-2.7781,-2.7829,-2.7838,-2.7871,-2.7939,-2.7951,-2.7894,-2.8007,-2.8026,-2.8112,-2.8146,-2.8096,-2.8103,-2.8342,-2.8345,-2.8348,-2.8349,0,0,0,0,0,0,-2.7559,-2.7586,-2.7617,-2.7695,-2.7723,-2.7847,-2.7831,-2.7842,-2.7884,-2.7884,-2.7963,-2.7975,-2.8007,-2.8101,-2.812,-2.8156,-2.8109,-2.8339,-2.8343,-2.8347,-2.8346,-2.8352,-2.8357,0,0,0,0,0,-2.755,-2.7612,-2.7619,-2.7641,-2.7764,-2.7849,-2.7865,-2.7901,-2.7887,-2.792,-2.7964,-2.7972,-2.814,-2.8109,-2.8131,-2.817,-2.8337,-2.8342,-2.8347,-2.8344,-2.8351,-2.8357,0,0,0,0,0,0,-2.7538,-2.7623,-2.7631,-2.772,-2.7777,-2.7853,-2.7895,-2.7907,-2.797,-2.7968,-2.801,-2.8028,-2.8112,-2.815,-2.8115,-2.8256,-2.8237,-2.8247,-2.8228,-2.8235,-2.824,-2.8229,-2.8115,0,0,0,0,0,-2.7545,-2.7607,-2.7678,-2.775,-2.7778,-2.7832,-2.787,-2.7893,-2.7954,-2.7979,-2.8029,-2.8088,-2.8155,-2.8197,-2.8262,-2.8353,-2.837,-2.839,-2.8395,-2.8399,-2.8407,-2.8458,-2.8468,-2.8365,-2.8365,-2.8365,0,0,-2.7562,-2.7616,-2.7652,-2.7749,-2.7796,-2.7859,-2.7852,-2.7919,-2.7967,-2.7989,-2.8073,-2.8113,-2.8182,-2.8271,-2.8312,-2.8305,-2.8439,-2.8406,-2.8408,-2.8414,-2.8464,-2.8474,-2.8482,-2.8369,-2.8368,-2.8368,0,0,-2.7624,-2.7671,-2.7736,-2.7783,-2.7854,-2.7889,-2.7905,-2.7979,-2.8006,-2.8091,-2.8109,-2.8168,-2.828,-2.8329,-2.8369,-2.8451,-2.8461,-2.8471,-2.8498,-2.8548,-2.8556,-2.8563,-2.8592,-2.8602,-2.8478,-2.8478,-2.8478,0,-2.7635,-2.773,-2.7768,-2.7835,-2.7877,-2.79,-2.7966,-2.8011,-2.8099,-2.8128,-2.8119,-2.8261,-2.831,-2.841,-2.843,-2.8462,-2.8482,-2.8461,-2.8551,-2.8559,-2.8567,-2.8595,-2.8606,-2.8479,-2.8479,-2.8479,-2.8479,0,-2.7741,-2.7807,-2.7851,-2.7936,-2.7983,-2.805,-2.8098,-2.8142,-2.8161,-2.8198,-2.8285,-2.8344,-2.8421,-2.8447,-2.8467,-2.8551,-2.8544,-2.8543,-2.8524,-2.8576,-2.8603,-2.8615,-2.848,-2.848,-2.8479,-2.8479,0,0,-2.7798,-2.7903,-2.7918,-2.7957,-2.8038,-2.809,-2.8158,-2.8233,-2.827,-2.8331,-2.8389,-2.8485,-2.8484,-2.8529,-2.8555,-2.8598,-2.8659,-2.8592,-2.8594,-2.8601,-2.8756,-2.8756,-2.8768,-2.8667,-2.8669,-2.8671,-2.875,0,-2.7869,-2.799,-2.8026,-2.8127,-2.8189,-2.8213,-2.8272,-2.8329,-2.8365,-2.8424,-2.8465,-2.8532,-2.8526,-2.8553,-2.8597,-2.8642,-2.8691,-2.8637,-2.8722,-2.8725,-2.8703,-2.8782,-2.8782,-2.8854,-2.8761,-2.8763,-2.8764,0,-2.7968,-2.803,-2.8137,-2.821,-2.8238,-2.829,-2.8362,-2.8418,-2.8483,-2.8507,-2.8557,-2.858,-2.8652,-2.8631,-2.8732,-2.8695,-2.8733,-2.876,-2.8764,-2.8772,-2.8747,-2.8792,-2.8877,-2.8888,-2.8781,-2.878,-2.8779,0,-2.7998,-2.8108,-2.8187,-2.822,-2.8307,-2.8344,-2.8382,-2.8445,-2.8488,-2.8552,-2.858,-2.8652,-2.8691,-2.8746,-2.8787,-2.8768,-2.8885,-2.8867,-2.8907,-2.8906,-2.8929,-2.8927,-2.9021,-2.8955,-2.8955,-2.8954,-2.8954,0,-2.8073,-2.8137,-2.8202,-2.825,-2.8324,-2.8366,-2.8438,-2.8478,-2.8534,-2.8591,-2.8616,-2.867,-2.8721,-2.8782,-2.8815,-2.8894,-2.8911,-2.8933,-2.8941,-2.893,-2.8927,-2.8954,-2.895,-2.8957,-2.8957,-2.8956,-2.8956,0,-2.8118,-2.8164,-2.8251,-2.8327,-2.8348,-2.8399,-2.8464,-2.8512,-2.855,-2.8623,-2.8642,-2.8702,-2.8775,-2.8821,-2.8914,-2.8937,-2.9023,-2.903,-2.9,-2.9004,-2.9041,-2.9036,-2.9155,-2.9172,-2.9095,-2.9095,-2.9096,0,-2.8162,-2.8213,-2.8294,-2.8334,-2.8372,-2.8436,-2.848,-2.8524,-2.8569,-2.8647,-2.8686,-2.876,-2.8822,-2.8937,-2.8989,-2.9061,-2.9069,-2.9106,-2.908,-2.9068,-2.9069,-2.9065,-2.907,-2.9109,-2.911,-2.911,-2.9111,0,-2.8236,-2.8257,-2.8318,-2.8389,-2.844,-2.8498,-2.8556,-2.8587,-2.8641,-2.869,-2.8765,-2.8812,-2.8907,-2.8981,-2.9057,-2.9097,-2.9113,-2.9119,-2.9132,-2.9121,-2.9102,-2.9112,-2.9011,-2.9116,-2.9115,-2.9115,-2.9115,-2.9114,-2.8283,-2.8329,-2.8393,-2.8461,-2.8509,-2.8563,-2.8612,-2.8656,-2.8718,-2.8798,-2.8821,-2.8898,-2.8963,-2.9067,-2.9109,-2.9171,-2.9167,-2.9186,-2.919,-2.9194,-2.9194,-2.9092,-2.9185,-2.9185,-2.9185,-2.9185,-2.9185,0,-2.8358,-2.84,-2.8463,-2.8542,-2.8596,-2.8606,-2.8671,-2.8716,-2.8783,-2.8842,-2.8902,-2.8988,-2.906,-2.9118,-2.9192,-2.9231,-2.924,-2.9248,-2.9246,-2.9255,-2.9194,-2.9175,-2.924,-2.924,-2.924,-2.924,-2.924,-2.924,-2.8403,-2.8481,-2.8509,-2.8612,-2.8654,-2.873,-2.8766,-2.8816,-2.8863,-2.8957,-2.9016,-2.9054,-2.9113,-2.9191,-2.9258,-2.9274,-2.9299,-2.9306,-2.9323,-2.9265,-2.9259,-2.9253,-2.9236,-2.9312,-2.9312,-2.9379,-2.938,-2.938]},{"header":{"parameterUnit":"m.s-1","parameterCategory":1,"la1":30.2991,"la2":30.254,"lo1":-89.0895,"lo2":-89.0444,"dy":0.0017,"dx":0.0017,"nx":28,"ny":28,"refTime":"2025-04-21T09:00:00:Z","depth":0,"parameterNumber":3,"parameterNumberName":"V-component_of_WINDS"},"data":[0,0,0,0,0,0,0,0,0,0,0,0,0,0,0,0,0,0,0,0,0,0,0,0,0,0,0,0,0,0,0,0,0,0,0,0,0,0,0,0,0,0,0,0,0,0,0,0,0,0,0,0,0,0,0,0,0,0,4.9952,4.9953,0,5.0058,5.0059,5.006,5.0032,5.003,5.0028,5.0026,5.0129,5.0134,5.0138,0,0,0,0,0,0,0,0,0,0,0,0,0,4.9722,4.9726,4.9952,4.9953,4.9955,5.0058,5.0059,5.0061,5.0032,5.003,5.0027,5.0025,5.0128,5.0133,5.0139,0,0,0,0,0,0,0,0,0,0,0,0,0,4.9824,4.9728,4.9952,4.9953,4.9954,5.0057,5.0059,5.0061,5.0033,5.003,5.0027,5.0024,5.0126,5.0133,5.014,5.0246,0,0,5.0161,5.0164,0,0,0,0,0,0,0,0,4.9818,4.9833,4.9952,4.9953,4.9955,5.0029,5.0016,5.0123,5.0034,5.0003,5.0026,5.0022,5.0098,5.0107,5.0134,5.0251,5.0256,5.0162,5.0166,5.0169,5.0171,0,0,0,0,0,0,0,4.9811,4.9828,4.9994,4.9953,4.9955,4.9947,4.9958,5.0036,5.0067,5.0005,5.0004,5.0017,5.0098,5.0127,5.0136,5.0257,5.0162,5.0168,5.0172,5.0175,5.0468,5.0472,0,0,0,0,0,0,4.9804,4.9822,4.999,4.9997,4.9878,4.9954,4.9966,5.0008,5.0066,5.0072,5.0019,5.0015,5.0116,5.0128,5.0139,5.0269,5.0169,5.0176,5.018,5.0465,5.0469,5.0473,0,0,0,0,0,0,4.9799,4.9819,4.9986,4.9909,4.993,4.9961,5.0008,5.0012,5.0041,5.0076,5.0081,5.0043,5.0114,5.013,5.0221,5.0272,5.0179,5.0185,5.0461,5.0466,5.0471,5.0528,0,0,0,0,0,0,4.9792,4.9817,4.9859,4.991,4.9934,5.0067,5.0012,5.0016,5.0053,5.0049,5.01,5.0106,5.0113,5.021,5.0228,5.028,5.0191,5.0456,5.0463,5.047,5.0521,5.0534,5.0545,0,0,0,0,0,4.9784,4.9869,4.9861,4.9882,4.9987,5.007,5.0083,5.0091,5.0058,5.0099,5.0123,5.0104,5.0264,5.022,5.0239,5.0294,5.0453,5.0461,5.0469,5.0516,5.0532,5.0545,0,0,0,0,0,0,4.9821,4.9876,4.9868,4.9972,5.0017,5.0065,5.0117,5.0107,5.0161,5.0154,5.0161,5.0173,5.0266,5.0289,5.0239,5.0401,5.0353,5.0366,5.0382,5.0398,5.041,5.0401,5.0197,0,0,0,0,0,4.9841,4.9905,4.9949,5.0037,5.006,5.0085,5.0121,5.0124,5.017,5.0188,5.0218,5.0262,5.0322,5.0361,5.0418,5.0525,5.0536,5.0573,5.0585,5.0594,5.0604,5.0663,5.068,5.0499,5.0499,5.0499,0,0,4.9884,4.9922,4.9961,5.0046,5.0081,5.0146,5.0101,5.0171,5.0219,5.0198,5.0287,5.031,5.036,5.0459,5.0505,5.0482,5.0657,5.0605,5.0612,5.0617,5.0673,5.069,5.0706,5.0505,5.0504,5.0503,0,0,4.9994,5.003,5.0107,5.0144,5.0198,5.0214,5.0233,5.0284,5.0299,5.0388,5.0374,5.0431,5.0534,5.057,5.0602,5.0729,5.0714,5.0748,5.081,5.0867,5.0881,5.0894,5.0939,5.0955,5.0758,5.0758,5.0758,0,5.0039,5.0138,5.0148,5.022,5.0258,5.0244,5.0323,5.0357,5.0426,5.0452,5.0426,5.0557,5.0589,5.0697,5.0728,5.0755,5.0776,5.0741,5.0879,5.0892,5.0903,5.0947,5.0964,5.0762,5.0761,5.0761,5.076,0,5.0191,5.026,5.0316,5.0386,5.043,5.0505,5.0525,5.0568,5.0568,5.0587,5.0678,5.0717,5.0782,5.0808,5.0807,5.0917,5.0901,5.0877,5.0829,5.0924,5.0965,5.0982,5.0767,5.0766,5.0764,5.0764,0,0,5.0325,5.0402,5.0422,5.0454,5.0514,5.0567,5.0641,5.0707,5.0744,5.0793,5.0855,5.0944,5.0923,5.0959,5.0963,5.1013,5.1112,5.0983,5.0984,5.1005,5.1235,5.1253,5.1272,5.1103,5.1106,5.1109,5.1231,0,5.0441,5.0574,5.0586,5.0704,5.0768,5.0757,5.0822,5.0865,5.0886,5.0942,5.0963,5.1027,5.0994,5.1016,5.1065,5.1089,5.1158,5.1081,5.116,5.1163,5.1147,5.1293,5.1311,5.1425,5.1247,5.125,5.1252,0,5.0593,5.0649,5.0775,5.0827,5.0855,5.0913,5.0975,5.1029,5.1078,5.1089,5.1131,5.1129,5.1205,5.1155,5.1259,5.1207,5.124,5.1257,5.1262,5.1269,5.1212,5.1303,5.1461,5.1478,5.1277,5.1275,5.1273,0,5.0679,5.0785,5.0875,5.0902,5.0966,5.1007,5.1035,5.1081,5.1121,5.1175,5.12,5.1262,5.1295,5.1343,5.1356,5.1319,5.1461,5.1412,5.1472,5.1471,5.1501,5.1499,5.1666,5.1523,5.1523,5.1523,5.1522,0,5.0806,5.0883,5.0914,5.0969,5.1055,5.1068,5.1153,5.1178,5.122,5.1279,5.1273,5.1328,5.1344,5.1402,5.1413,5.1498,5.1513,5.1523,5.1525,5.1524,5.1523,5.1545,5.1537,5.1527,5.1526,5.1525,5.1525,0,5.0915,5.0939,5.1036,5.1089,5.1104,5.1166,5.1211,5.1263,5.1283,5.1358,5.1376,5.1408,5.1476,5.1495,5.1576,5.1583,5.1684,5.1678,5.1668,5.1667,5.1726,5.172,5.1913,5.1939,5.1779,5.1781,5.1782,0,5.0995,5.1054,5.1115,5.1155,5.1186,5.125,5.1291,5.1306,5.1349,5.1411,5.1456,5.1523,5.1578,5.1688,5.1717,5.1779,5.1775,5.1838,5.1784,5.1781,5.1776,5.1772,5.1778,5.1848,5.185,5.1851,5.1852,0,5.1133,5.1143,5.1203,5.1268,5.1318,5.1369,5.1418,5.1451,5.1473,5.1521,5.1592,5.1635,5.172,5.1787,5.185,5.1878,5.1869,5.187,5.1887,5.1885,5.1877,5.1882,5.1695,5.1865,5.1863,5.1862,5.1862,5.1861,5.123,5.1283,5.1335,5.1402,5.1441,5.1488,5.1541,5.1569,5.1628,5.1699,5.1704,5.1781,5.183,5.1914,5.1946,5.2006,5.1987,5.2011,5.2017,5.2023,5.2028,5.1868,5.2017,5.2017,5.2016,5.2016,5.2016,0,5.1368,5.1402,5.1464,5.1534,5.1588,5.1577,5.1631,5.1676,5.1744,5.1791,5.1846,5.1928,5.1994,5.2029,5.2095,5.2136,5.2133,5.2152,5.2149,5.2156,5.2041,5.202,5.2153,5.2153,5.2153,5.2153,5.2153,5.2153,5.1446,5.1536,5.1552,5.1661,5.1693,5.177,5.1802,5.1845,5.1883,5.1975,5.203,5.2054,5.2096,5.2165,5.2225,5.2233,5.2257,5.2279,5.2285,5.2177,5.2163,5.215,5.213,5.2284,5.2284,5.2394,5.2395,5.2396]}]]